Weather in New York

United States     40°42′57″N   74°00′10″W
temp.,
°C
wind,
m/s
gust,
m/s
humid.,
%
clouds,
%
prec.,
mm/h
press.,
hPa
HPBL,
m
12 may, wed
wed1223:00+12nw5850100 0.0 1019903
02:00+9nw5105323 0.0 1020939
05:00+8wnw511540 0.0 1020824
08:00+8nw69598 0.0 1022929
11:00+14nnw56444 0.0 10221370
14:00+18nnw67315 0.0 10211905
17:00+19n5727100 0.0 10202545
20:00+16nnw58391 0.0 10221067
13 may, thu
thu1323:00+14nnw59461 0.0 1022661
02:00+12nnw38525 0.0 1022373
05:00+10nw26525 0.0 1023192
08:00+12nnw33440 0.0 1024342
11:00+17nnw34240 0.0 10242147
14:00+20n34215 0.0 10222530
17:00+20n342283 0.0 10212793
20:00+18nne133430 0.0 1022878
14 may, fri
fri1423:00+15w23425 0.0 102392
02:00+13nnw25532 0.0 1023180
05:00+12n23552 0.0 102496
08:00+15nnw23480 0.0 1025246
11:00+20w22330 0.0 10251552
14:00+22ssw232755 0.0 10232613
17:00+21ssw542978 0.0 10221840
20:00+19w444444 0.1 10231003
15 may, sat
sat1523:00+17wsw245197 0.0 1024216
02:00+15nw116652 0.3 102435
05:00+13nnw247510 0.5 1024138
08:00+15nnw23575 0.5 1025275
11:00+21wnw11375 0.0 10251229
14:00+23wsw23255 0.0 10232653
17:00+23sw342616 0.0 10222147
20:00+20s354298 0.0 1023215
16 may, sun
sun1623:00+18wsw3651100 0.0 1023231
02:00+16w365685 0.1 1024248
05:00+14n376393 0.1 1024247
08:00+16n355097 0.1 1026325
11:00+20w353922 0.1 10261442
14:00+19ssw3447100 0.8 1024818
17:00+16nw2576100 4.3 1024302
20:00+15s38749 7.0 1024200